Theta_e
347 348 348 349 351 352 351 350 337 336 332 317 316 319 319 321 321 320 320 321 323 326 330 331 332 332 334 333 334 334 334 334 334 334 337 336 336 336 336 337 336 337 337
344 347 352 353 351 350 346 332 325 324 316 318 319 321 322 323 321 320 322 327 329 331 333 331 330 331 330 330 334 336 337 337 337 337 336 336 336 336 336 337 337 338 337
349 352 354 353 350 349 339 319 317 317 321 324 322 325 326 328 326 325 321 322 326 331 330 329 329 331 330 327 328 332 333 336 335 334 334 333 334 337 338 335 337 335 338
353 356 355 353 352 340 327 321 318 319 321 326 327 330 328 327 329 331 329 329 325 324 324 328 326 325 326 323 324 321 323 326 328 328 333 333 336 336 335 336 334 335 335
355 357 355 351 350 347 332 324 321 320 321 325 326 327 328 327 331 332 333 332 329 325 324 325 320 315 321 325 327 326 320 318 322 323 326 331 333 334 333 332 333 333 334
354 355 353 352 349 345 332 326 323 322 324 325 322 323 325 328 329 332 331 329 325 322 326 323 326 323 317 321 323 322 319 314 324 325 327 328 330 332 333 332 331 329 331
355 354 353 352 350 342 332 331 324 325 326 326 325 323 325 326 329 332 329 326 322 317 323 326 328 326 315 315 316 312 311 317 319 325 328 330 330 330 330 331 331 326 330
355 352 353 354 350 344 333 333 325 327 327 328 328 326 325 324 325 327 329 325 321 318 325 328 326 327 317 318 319 317 309 313 320 325 327 329 329 328 327 325 325 325 330
332 350 353 352 349 342 336 333 326 328 329 331 329 327 328 326 324 323 324 318 316 312 325 326 325 321 318 317 319 318 313 308 316 323 325 325 326 326 326 326 325 325 328
332 336 346 348 346 344 340 328 327 330 334 332 328 328 328 327 322 317 322 317 311 309 319 323 321 319 317 317 319 316 309 307 308 317 322 325 325 325 326 327 327 324 323
337 340 341 347 342 340 329 327 332 336 333 329 327 328 327 325 321 325 322 322 320 312 310 309 309 311 312 315 313 309 309 310 310 311 312 321 325 326 326 326 326 326 324
330 342 343 342 335 330 330 336 337 334 330 325 321 323 327 327 328 327 325 323 323 316 316 316 312 309 309 311 316 316 316 315 311 319 322 319 321 323 325 325 327 323 318
335 339 333 331 336 334 337 338 336 329 325 324 325 326 327 327 327 328 329 324 323 323 321 321 319 314 313 315 319 319 319 319 312 318 321 319 318 318 319 319 317 316 314
335 336 329 333 334 336 338 336 329 326 326 326 327 327 327 327 326 326 326 325 324 323 322 321 321 317 314 314 319 319 320 320 319 319 318 317 316 316 317 317 317 317 317
337 334 333 335 336 335 327 325 325 326 326 326 325 324 323 322 322 326 326 325 325 324 322 321 321 317 316 315 315 319 320 321 320 319 319 319 319 318 317 316 316 317 317
335 335 334 337 333 332 329 328 327 327 327 326 325 324 323 324 322 318 315 317 318 320 318 317 317 318 317 317 316 314 318 320 321 320 319 320 319 319 318 318 317 317 316
336 336 333 335 332 328 332 329 327 329 327 328 327 326 327 328 326 323 322 322 322 320 318 316 316 316 317 318 317 316 317 319 320 320 320 320 319 318 318 317 317 316 316
332 335 334 329 330 329 330 331 331 329 329 329 329 329 329 329 328 326 324 322 321 320 321 321 319 319 320 320 320 320 320 321 320 319 320 319 320 320 319 318 317 317 317
333 330 329 329 330 329 330 330 330 330 330 330 329 329 328 329 329 328 327 324 325 327 326 320 319 319 320 322 321 320 320 321 322 322 320 320 320 319 320 320 319 318 318
332 331 331 331 330 330 329 327 327 326 325 325 325 325 325 324 324 325 326 326 325 323 322 321 321 323 324 324 323 323 323 323 324 323 323 322 322 321 321 320 320 320 319
330 328 326 325 325 323 322 322 321 320 317 315 314 316 315 315 320 321 322 321 321 320 320 319 320 321 320 321 320 322 322 323 322 321 321 321 321 322 323 322 322 321 322
324 324 326 325 323 321 321 320 320 319 317 314 312 311 310 310 309 308 307 307 307 307 308 308 308 309 309 311 310 312 314 311 314 316 317 317 319 320 319 319 319 319 319
317 315 315 314 312 312 312 312 311 311 311 310 309 308 308 307 307 306 306 306 305 304 305 304 304 303 303 303 303 302 302 303 303 304 305 306 311 309 313 316 316 318 319
310 310 310 309 309 308 308 307 307 307 307 307 307 306 306 306 306 306 306 305 305 305 305 305 305 304 304 304 303 303 303 302 302 302 302 300 300 301 301 302 304 308 315
307 307 307 307 307 306 307 306 306 306 306 306 306 306 306 306 306 305 305 305 305 305 305 305 305 304 304 304 303 303 302 303 302 302 301 300 300 300 300 300 300 301 301
307 307 307 306 306 306 306 306 306 306 306 306 306 306 306 306 306 305 305 305 304 305 305 304 304 304 303 303 303 303 303 303 302 301 300 300 300 300 300 300 300 300 300
Wind_Speed
27 23 22 20 19 17 14 12 11 10 9 7 5 4 1 2 2 1 0 1 2 1 2 4 4 3 2 2 4 7 8 6 5 5 1 4 9 10 10 3 2 6 11
21 21 21 19 17 15 12 13 12 10 8 6 4 3 1 1 2 1 1 0 0 1 1 4 2 3 3 5 7 5 4 4 4 3 4 5 2 3 8 9 8 9 8
22 21 20 19 16 14 13 12 10 9 7 5 3 1 1 2 2 4 5 4 1 2 4 5 3 3 5 3 5 8 9 8 9 6 7 8 6 3 3 7 10 10 7
28 25 24 22 17 12 12 10 10 9 7 5 3 3 2 3 2 1 3 4 3 3 5 8 8 6 5 5 5 3 5 8 9 7 6 7 4 4 6 6 7 10 10
30 30 30 24 21 16 15 12 10 9 9 7 6 5 6 5 6 7 7 9 11 8 5 4 7 6 5 6 5 7 8 6 6 6 8 8 6 6 8 10 11 8 10
34 34 33 27 23 19 19 16 13 11 9 8 8 8 9 6 6 6 11 12 10 10 8 4 5 10 9 7 9 12 11 7 5 4 4 5 6 4 4 5 6 7 6
36 35 34 32 27 24 22 19 16 14 11 9 10 10 10 9 9 10 11 10 9 9 11 7 5 9 11 8 8 8 9 6 6 5 5 5 4 5 6 7 7 9 7
40 40 38 34 29 27 24 20 17 14 11 11 10 9 9 9 10 10 9 8 8 7 10 10 7 5 10 8 8 10 9 6 8 8 7 5 6 7 9 9 9 8 6
42 33 40 33 32 28 24 19 17 13 12 10 9 8 7 7 7 7 8 9 7 8 13 11 8 6 9 10 11 13 12 8 8 9 8 9 9 9 7 5 6 8 7
69 58 43 35 30 27 24 20 16 13 11 12 12 10 9 7 6 3 4 4 5 5 10 11 10 10 10 10 11 14 14 10 9 11 12 13 12 11 10 5 3 3 6
46 39 43 30 25 19 19 18 13 10 11 12 11 10 9 9 5 3 2 4 5 3 5 8 9 10 10 10 13 13 11 9 7 9 9 6 9 11 13 10 10 7 9
20 18 30 18 16 17 15 12 9 10 12 10 9 9 6 4 4 4 4 3 5 5 6 8 9 6 6 7 7 7 8 8 8 3 2 2 4 7 5 6 7 8 11
19 8 13 12 14 12 10 7 8 9 8 7 7 6 5 6 7 9 11 11 8 6 6 8 10 9 8 6 5 6 6 8 6 6 6 7 5 4 4 4 8 10 8
8 18 18 14 12 10 8 7 7 8 8 7 6 7 7 8 9 10 12 14 14 12 11 11 13 12 11 11 9 8 11 11 8 5 4 3 3 6 8 8 9 10 12
13 14 14 11 9 6 5 5 6 6 4 3 4 7 10 12 12 11 10 11 12 13 15 18 17 15 13 13 11 12 11 13 13 13 13 12 10 8 10 13 14 13 14
9 7 5 6 9 6 7 8 5 3 2 5 7 8 9 9 9 8 9 9 9 12 16 19 19 16 17 16 14 14 13 11 11 11 12 14 17 16 15 15 15 17 17
5 8 10 7 4 3 5 6 5 6 6 8 9 11 10 10 13 12 12 13 13 13 15 16 18 17 17 14 12 12 14 15 13 14 14 15 14 13 15 16 17 15 19
7 8 11 7 5 4 6 8 6 7 8 6 6 10 12 14 13 16 17 18 18 19 17 18 19 16 14 14 14 15 16 15 17 19 19 21 20 18 18 20 19 17 16
6 8 7 4 3 3 3 3 5 9 11 9 10 12 13 14 12 14 14 16 19 21 20 19 19 19 19 19 18 18 19 19 19 21 22 23 22 21 21 20 19 20 21
3 3 2 3 3 4 7 8 8 9 10 10 12 13 12 12 12 12 14 15 15 15 14 15 17 18 19 18 19 18 17 17 17 16 19 22 22 23 23 22 21 22 22
1 3 5 4 4 5 5 7 8 8 9 9 8 8 9 10 9 8 10 12 13 11 12 12 13 13 13 13 12 15 17 18 18 17 17 21 22 22 23 23 24 26 26
1 1 3 3 0 2 3 3 2 0 0 2 4 5 8 11 11 10 10 11 12 14 13 12 12 12 13 14 15 16 17 15 15 14 14 14 16 23 26 26 25 20 22
1 1 1 2 2 3 3 3 3 3 2 3 4 6 7 7 6 6 9 13 15 15 11 13 15 15 15 16 17 17 16 16 17 19 19 19 18 19 16 18 17 19 25
2 4 4 3 4 6 6 6 6 5 5 5 4 3 4 8 14 9 7 13 15 13 13 17 19 17 19 19 21 23 21 21 22 24 24 22 17 15 15 16 19 21 21
4 4 5 3 2 5 5 6 5 5 7 8 4 8 12 11 10 7 11 15 17 13 14 19 20 22 24 27 28 27 26 25 24 24 24 25 20 19 19 18 19 19 20
7 9 12 12 8 4 3 5 6 7 9 8 10 11 12 13 15 18 20 19 19 17 21 22 22 24 28 29 33 28 21 20 23 21 21 22 25 26 24 23 24 25 24
Wind_Direction
206 206 207 208 210 218 223 229 231 231 249 243 235 227 217 81 50 331 176 121 131 121 33 4 334 317 273 249 242 240 244 242 241 242 198 215 227 229 223 232 272 272 253
204 201 204 210 219 217 227 228 221 221 209 201 191 195 154 63 46 56 33 52 284 67 17 354 10 15 341 272 255 247 254 265 275 251 261 267 273 221 230 223 246 279 299
195 198 209 216 221 225 229 216 208 205 198 182 178 200 332 12 31 74 81 74 244 282 308 320 324 331 345 331 274 256 257 263 273 277 278 297 274 263 288 224 237 277 289
198 201 211 218 227 229 223 215 212 210 210 204 211 223 243 273 272 286 278 345 356 318 310 296 309 308 320 332 334 307 269 255 257 261 248 256 250 241 253 258 250 263 262
203 210 210 216 221 217 222 217 215 216 217 222 242 259 272 269 279 282 283 305 308 298 301 334 323 318 310 306 318 324 324 281 256 252 240 249 261 279 287 259 263 294 278
207 207 210 216 223 217 218 211 218 222 223 233 243 245 249 259 273 282 283 289 286 273 281 314 10 357 313 311 313 314 320 306 274 289 293 267 270 284 287 303 310 293 246
212 211 213 217 222 209 210 214 217 219 222 234 238 241 246 255 262 269 283 289 278 265 263 278 292 350 351 326 323 326 313 271 289 266 276 293 302 307 297 289 300 299 290
210 214 217 219 222 208 209 213 218 218 224 235 239 243 251 253 261 267 279 293 294 263 237 269 275 326 334 339 342 349 348 290 270 264 266 250 281 305 307 302 291 281 286
346 233 221 221 214 205 205 208 213 218 228 237 242 241 247 266 274 274 286 292 287 260 244 273 277 284 305 309 321 332 337 311 277 259 266 271 269 270 285 298 301 284 276
301 308 234 223 204 204 207 203 206 220 227 229 229 238 249 269 282 258 316 308 305 287 256 265 281 294 295 302 313 324 332 323 291 257 258 253 265 265 266 263 299 316 348
321 242 211 207 197 196 190 200 195 213 229 238 245 254 260 275 220 210 35 10 360 320 305 297 296 294 294 303 311 317 324 324 313 287 275 263 254 255 260 254 257 271 305
7 112 146 168 170 175 182 187 190 221 234 238 248 236 212 177 209 236 258 292 347 4 31 17 5 344 323 322 336 343 336 315 318 278 237 314 282 272 265 266 259 272 295
131 152 130 154 171 173 178 203 220 229 232 193 171 183 196 243 259 256 251 258 265 284 308 340 352 345 331 311 297 321 336 346 319 244 266 280 296 296 305 298 293 296 295
139 161 165 181 179 188 199 211 210 189 180 199 229 252 263 263 263 255 253 247 256 271 285 298 319 323 321 312 273 287 306 293 284 283 296 280 274 261 266 278 285 286 305
173 180 182 186 168 164 145 143 171 180 189 246 297 300 301 296 287 287 280 270 272 273 274 288 302 307 313 313 282 273 288 294 272 274 273 270 265 272 284 280 280 277 282
158 182 178 161 135 144 147 150 144 156 243 280 272 277 287 309 318 303 282 277 279 268 277 291 299 302 307 308 299 284 265 287 280 276 283 280 269 267 274 282 278 280 272
202 155 124 159 175 163 222 222 223 242 256 263 268 273 280 290 278 275 282 281 281 280 285 291 297 304 308 308 299 295 279 272 283 282 284 288 291 282 276 286 294 278 265
70 132 140 137 133 167 221 220 216 215 242 234 246 258 278 291 278 269 264 264 270 278 283 288 288 288 290 286 284 287 286 281 276 274 277 283 286 288 283 286 285 282 280
104 117 133 150 158 148 150 189 274 290 290 293 292 292 295 289 277 275 270 268 273 276 275 273 278 284 292 291 288 283 278 285 284 274 271 269 266 269 278 291 292 290 285
128 54 323 278 313 303 305 313 316 334 342 334 325 322 318 315 306 301 297 293 294 294 290 286 286 288 292 292 288 287 285 282 281 277 268 263 268 271 269 267 271 278 278
183 106 75 62 55 59 46 25 5 17 11 2 356 343 330 318 310 313 302 301 306 307 305 307 299 296 293 292 296 285 282 274 267 273 278 278 283 283 274 269 274 278 285
19 98 176 157 356 313 323 293 287 321 8 12 19 357 342 337 341 338 327 336 340 333 324 325 322 323 323 322 325 319 311 319 313 300 292 290 282 275 275 274 268 269 277
320 1 48 44 19 0 342 9 7 36 351 322 338 349 345 333 330 331 347 347 351 349 347 356 354 348 346 348 348 342 332 325 322 322 314 311 296 300 290 284 277 263 265
352 330 330 338 342 347 356 14 28 40 45 22 18 19 348 343 346 343 348 349 352 343 334 339 343 347 348 345 344 342 339 341 337 332 334 326 321 323 318 310 298 290 279
37 55 68 61 59 89 101 89 62 35 11 4 356 350 345 342 349 342 336 329 332 327 319 321 322 323 321 319 319 319 316 317 319 323 325 328 321 309 313 321 322 319 304
51 57 67 56 48 47 87 46 39 29 5 350 343 338 334 327 325 324 323 324 316 309 311 309 304 302 307 309 309 306 302 302 309 313 313 317 318 317 311 309 315 316 312